Tracking 35055 objects as of 18-Aug-2026
HD Live streaming from Space Station
objects crossing your sky now

ICEYE-X36

Track ICEYE-X36 now!
10-day predictions
ICEYE-X36 is classified as:


NORAD ID: 59103
Int'l Code: 2024-043F
Launch date: March 4, 2024
Source: United States (US)
Launch site: AIR FORCE WESTERN TEST RANGE (AFWTR)

Uplink (MHz):
Downlink (MHz):
Beacon (MHz):
Mode:
Call sign:
Status: Unknown

Your satellite tracking list
Your tracking list is empty




NASA's NSSDC Master Catalog

Two Line Element Set (TLE):
1 59103U 24043F   26230.58942397  .00003460  00000-0  23257-3 0  9996
2 59103  97.8454   9.8220 0007441 107.2319 252.9723 15.07446942134546
Source of the keplerian elements: AFSPC